Overview Statistics Trail Chart Weather Telemetry Raw packets
 

This is the latest recevied weather packets stored in our database for station/object OK1ALX-6. If no packets are shown the sender has not sent any weather packets the latest 10 day(s).

<< 54 55 56 57 58 >>
Time Temp. Humidity Pressure Rain* Wind** Luminosity Snow
1787773803 17.78° C 78% 1024.6 hPa 0 mm - 0 W/m² -
1787773203 18.33° C 78% 1024.6 hPa 0 mm - 0 W/m² -
1787772603 18.33° C 78% 1024.3 hPa 0 mm - 0 W/m² -
1787772003 18.33° C 77% 1024.2 hPa 0 mm - 0 W/m² -
1787771403 18.33° C 77% 1024.2 hPa 0 mm - 0 W/m² -
1787770804 18.33° C 77% 1024.4 hPa 0 mm - 0 W/m² -
1787770203 18.33° C 76% 1024.3 hPa 0 mm - 0 W/m² -
1787769603 18.89° C 76% 1024.2 hPa 0 mm - 0 W/m² -
1787769003 18.89° C 76% 1024 hPa 0 mm - 0 W/m² -
1787768403 18.89° C 75% 1023.8 hPa 0 mm - 0 W/m² -
1787767807 19.44° C 75% 1023.8 hPa 0 mm - 0 W/m² -
1787767203 19.44° C 73% 1023.9 hPa 0 mm - 0 W/m² -
1787766603 19.44° C 73% 1023.7 hPa 0 mm - 2 W/m² -
1787766003 20° C 73% 1023.8 hPa 0 mm - 5 W/m² -
1787765403 20° C 71% 1023.6 hPa 0 mm - 12 W/m² -
1787764803 20° C 71% 1023.8 hPa 0 mm - 20 W/m² -
1787764203 20.56° C 71% 1023.9 hPa 0 mm - 23 W/m² -
1787763603 20.56° C 70% 1023.4 hPa 0 mm - 42 W/m² -
1787763003 21.11° C 70% 1023.5 hPa 0 mm - 48 W/m² -
1787762403 21.11° C 68% 1023.5 hPa 0 mm - 61 W/m² -
1787761803 21.67° C 67% 1023.5 hPa 0 mm - 68 W/m² -
1787761203 21.67° C 66% 1023.3 hPa 0 mm - 105 W/m² -
1787760603 21.67° C 65% 1023.3 hPa 0 mm - 149 W/m² -
1787760003 21.67° C 66% 1023.3 hPa 0 mm - 143 W/m² -
1787759403 21.67° C 66% 1023.4 hPa 0 mm - 109 W/m² -

* Rain latest hour (hover to see other rain measurements)
** Current wind speed in m/s (hover to see current wind gust speed)